TimeEDT,TemperatureF,Dew PointF,Humidity,Sea Level PressureIn,VisibilityMPH,Wind Direction,Wind SpeedMPH,Gust SpeedMPH,PrecipitationIn,Events,Conditions,WindDirDegrees,DateUTC
12:00 AM,44.6,41.0,87,29.89,12.0,WNW,9.2,-,N/A,Rain,Light Rain Showers,300,2012-10-16 04:00:00
1:00 AM,44.6,39.2,81,29.90,15.0,WNW,5.8,-,N/A,,Overcast,300,2012-10-16 05:00:00
1:12 AM,44.6,39.2,81,29.90,15.0,WNW,8.1,-,N/A,Rain,Light Rain Showers,300,2012-10-16 05:12:00
1:45 AM,42.8,41.0,93,29.91,6.0,WNW,10.4,-,N/A,Rain,Light Rain Showers,300,2012-10-16 05:45:00
2:00 AM,43,41,91,29.91,6,WNW,9.2,,,,Overcast,290,2012-10-16 06:00:00
2:00 AM,42.8,41.0,93,29.91,6.0,WNW,10.4,-,N/A,Rain,Light Rain Showers,300,2012-10-16 06:00:00
2:41 AM,42.8,41.0,93,29.92,12.0,West,5.8,-,N/A,,Overcast,280,2012-10-16 06:41:00
3:00 AM,42.8,41.0,93,29.93,15.0,West,6.9,-,N/A,,Mostly Cloudy,260,2012-10-16 07:00:00
4:00 AM,41.0,39.2,93,29.91,15.0,West,4.6,-,N/A,,Scattered Clouds,260,2012-10-16 08:00:00
5:00 AM,42.8,39.2,87,29.92,15.0,West,5.8,-,N/A,,Overcast,270,2012-10-16 09:00:00
6:00 AM,42.8,37.4,81,29.93,15.0,West,3.5,-,N/A,,Overcast,280,2012-10-16 10:00:00
7:00 AM,42.8,37.4,81,29.94,15.0,West,4.6,-,N/A,,Mostly Cloudy,260,2012-10-16 11:00:00
8:00 AM,42,38,82,29.96,15,West,5.8,,,,,270,2012-10-16 12:00:00
8:00 AM,42.8,37.4,81,29.96,15.0,West,6.9,-,N/A,,Mostly Cloudy,270,2012-10-16 12:00:00
9:00 AM,42.8,39.2,87,29.96,15.0,West,5.8,-,N/A,,Mostly Cloudy,260,2012-10-16 13:00:00
10:00 AM,42.8,39.2,87,29.98,15.0,WSW,8.1,-,N/A,,Mostly Cloudy,250,2012-10-16 14:00:00
11:00 AM,44.6,39.2,81,29.98,15.0,West,8.1,-,N/A,,Mostly Cloudy,260,2012-10-16 15:00:00
12:00 PM,44.6,39.2,81,29.98,15.0,West,6.9,-,N/A,,Mostly Cloudy,280,2012-10-16 16:00:00
1:00 PM,48.2,39.2,71,29.96,15.0,WNW,3.5,-,N/A,,Mostly Cloudy,300,2012-10-16 17:00:00
2:20 PM,51.8,39.2,62,29.92,15.0,Variable,4.6,-,N/A,,Mostly Cloudy,0,2012-10-16 18:20:00
3:00 PM,51.8,37.4,58,29.91,15.0,Variable,2.3,-,N/A,,Mostly Cloudy,0,2012-10-16 19:00:00
4:00 PM,53.6,37.4,54,29.89,15.0,South,8.1,-,N/A,,Scattered Clouds,190,2012-10-16 20:00:00
5:00 PM,51.8,37.4,58,29.88,15.0,SSW,11.5,-,N/A,,Partly Cloudy,200,2012-10-16 21:00:00
6:00 PM,50.0,37.4,62,29.88,15.0,South,11.5,-,N/A,,Partly Cloudy,190,2012-10-16 22:00:00
7:00 PM,46.4,39.2,76,29.88,15.0,South,8.1,-,N/A,,Partly Cloudy,180,2012-10-16 23:00:00
8:00 PM,44,39,76,29.87,15,SE,4.6,,,,,140,2012-10-17 00:00:00
8:00 PM,44.6,39.2,81,29.87,15.0,SE,5.8,-,N/A,,Partly Cloudy,140,2012-10-17 00:00:00
9:00 PM,41.0,37.4,87,29.86,15.0,ESE,5.8,-,N/A,,Clear,110,2012-10-17 01:00:00
10:00 PM,39.2,37.4,93,29.85,15.0,ESE,5.8,-,N/A,,Clear,120,2012-10-17 02:00:00
11:00 PM,39.2,37.4,93,29.86,15.0,ESE,3.5,-,N/A,,Partly Cloudy,120,2012-10-17 03:00:00